CAPE
0 0 0 0 0 0 0 0 0 0 0 0 0 0 0 0 0 0 0 0 0 0 0 0 0 0 0 0 0 0 0 0 0 456 904 1020 1400 1882 2227 2243 2191 2221 2336 2317 2413 2425 2447 2525 2631 2496 2277 1999 1501 1479 1660 1680 1655 1672 1767 1747 1651 1450 1220 1131 1109 886 585 460 314 350 436 532 569 659 625 730 715 636 699 766 746 777 732 643 758 950
0 5 6 0 0 0 0 0 0 0 0 0 0 0 0 0 0 0 0 0 0 0 0 0 0 0 0 0 0 0 0 0 0 129 376 788 965 1314 1773 2221 2204 2260 2224 2352 2499 2492 2535 2578 2585 2590 2211 1718 1424 1430 1619 1667 1671 1736 1800 1749 1679 1568 1422 1231 1147 1199 856 572 591 378 379 459 452 415 484 726 752 660 652 711 715 748 760 670 579 632
6 9 4 0 0 0 0 0 0 0 0 0 0 0 0 0 0 0 0 0 0 0 0 0 0 0 0 0 0 0 0 0 0 299 402 544 744 1050 1464 1852 2140 2211 2232 2341 2486 2582 2604 2650 2727 2623 2257 1687 1466 1485 1588 1614 1635 1741 1784 1749 1664 1596 1478 1320 1127 1100 1109 813 549 540 314 319 418 371 377 570 721 726 645 701 706 875 863 766 687 681
23 22 0 0 0 0 0 0 0 0 0 0 0 0 0 0 0 0 0 0 0 0 0 0 0 0 0 0 0 0 0 0 239 300 425 447 668 925 1220 1604 2016 2320 2480 2571 2585 2573 2549 2656 2626 2398 1863 1591 1471 1579 1658 1614 1616 1692 1748 1689 1610 1504 1376 1286 1180 948 844 759 713 645 488 312 345 473 730 609 583 627 651 599 761 662 730 806 727 726
16 9 0 0 0 0 0 0 0 0 0 0 0 0 0 0 0 0 0 0 0 0 0 0 0 0 0 0 0 0 0 9 38 345 396 405 429 682 892 1092 1480 1868 2091 2322 2407 2318 2297 2346 2270 1917 1551 1376 1372 1484 1573 1684 1777 1794 1679 1550 1458 1270 1088 961 886 875 803 683 488 567 474 506 592 778 822 864 822 737 798 681 659 805 646 583 670 589
0 0 0 0 0 0 0 0 0 0 0 0 0 0 0 0 0 0 0 0 0 0 0 0 0 0 0 0 0 0 1 52 108 228 264 319 357 748 773 810 871 1105 1321 1642 1877 1922 1879 1969 1812 1606 1421 1387 1509 1628 1594 1667 1763 1704 1525 1340 1113 872 747 735 762 782 787 731 547 632 647 596 795 863 994 1031 935 857 722 778 584 630 692 534 473 492
0 0 0 0 0 0 0 0 0 0 0 0 0 0 0 0 0 0 0 0 0 0 0 0 0 0 0 0 168 175 0 19 111 219 347 455 415 625 853 893 860 861 884 885 894 1012 1218 1466 1519 1477 1668 1902 2000 1910 1820 1830 1785 1596 1367 1071 924 832 822 788 752 783 801 814 698 562 578 546 762 851 928 1000 983 834 792 671 603 663 584 416 377 508
0 0 0 0 0 0 0 0 0 0 0 0 0 0 0 0 0 0 0 0 0 0 0 0 0 0 0 0 149 25 0 9 122 205 350 487 568 630 852 1005 1059 1034 1012 1052 1074 968 1252 1344 1302 1623 2029 2143 2023 1883 1858 1868 1721 1451 1150 974 978 951 910 889 759 747 726 679 587 522 499 506 578 784 818 942 956 856 852 722 656 636 567 502 381 453
0 0 0 0 0 0 0 0 0 0 0 0 0 0 0 0 0 0 0 0 0 0 0 0 0 0 0 72 92 12 14 35 108 177 286 525 632 663 683 886 936 1030 1054 1100 1218 1136 1221 1325 1351 1736 1923 1926 1855 1852 1893 1751 1439 1127 1006 990 1080 1149 1042 788 711 757 759 646 524 577 518 526 719 848 946 927 907 810 681 672 621 576 575 634 606 511
0 0 0 0 0 0 0 0 0 0 0 0 0 0 0 0 0 0 0 0 0 0 0 0 0 0 0 78 144 127 49 100 76 224 250 492 588 652 631 680 776 833 888 994 1126 1217 1261 1256 1580 1807 1758 1707 1720 1806 1856 1722 1437 1073 957 1009 989 930 966 879 781 826 824 566 543 657 587 676 831 926 986 972 889 788 646 607 578 565 535 608 555 636
0 0 0 0 0 0 0 0 0 0 0 0 0 0 0 0 0 0 0 0 0 0 0 0 0 0 0 76 148 236 88 62 356 340 403 465 453 485 537 578 615 726 772 900 1120 1230 1306 1381 1597 1680 1601 1647 1626 1572 1815 1824 1627 1192 976 975 897 777 717 702 703 680 674 568 597 657 772 813 907 974 1020 970 878 767 643 436 506 562 607 602 509 480
0 0 0 0 0 0 0 0 0 0 0 0 0 0 0 0 0 0 0 0 0 0 0 0 0 0 0 0 154 160 126 223 287 178 379 541 609 635 630 680 659 667 747 828 1030 1041 1110 1301 1440 1484 1550 1586 1459 970 1519 1660 1529 1207 1060 992 855 829 783 756 731 720 748 732 796 724 678 829 933 1032 990 975 905 677 528 454 468 572 674 638 534 454
0 0 0 0 0 0 0 0 0 0 0 0 0 0 0 0 0 0 0 0 0 0 0 0 0 0 0 0 74 102 78 358 317 430 419 608 747 737 764 703 793 853 871 923 1024 1114 1206 1305 1351 1421 1596 1595 1284 1234 1562 1558 1250 1007 780 787 845 870 850 836 788 759 759 799 795 749 759 761 811 874 914 987 954 752 460 312 341 566 720 593 530 478
0 0 0 0 0 0 0 0 0 0 0 0 0 0 0 0 0 0 0 0 0 0 0 0 0 0 100 86 72 146 96 148 238 295 544 484 466 796 738 753 878 1037 1026 980 1058 1136 1242 1329 1452 1537 1644 1640 1431 1391 1403 1387 1231 794 672 674 716 676 781 869 842 767 720 712 773 722 667 782 833 857 838 848 882 871 817 643 303 392 553 565 506 498
10 1 0 0 0 0 0 0 0 0 0 0 0 0 0 0 0 0 0 0 0 0 0 0 0 0 5 1 83 82 171 225 233 311 246 403 497 575 552 608 700 906 944 1012 1163 1164 1226 1310 1304 1434 1548 1330 941 997 1157 1301 1185 760 854 744 611 638 647 601 741 768 726 640 611 691 771 756 796 858 842 812 781 775 739 721 398 307 462 587 578 537
0 0 0 0 0 0 0 0 0 0 0 0 0 0 0 0 0 0 0 0 0 0 0 0 0 0 0 38 119 200 298 129 38 20 219 277 245 407 533 597 553 519 422 482 629 738 824 882 935 964 877 1030 1098 1146 1202 1257 1201 893 771 803 712 476 548 604 713 714 589 568 498 253 608 871 849 786 730 710 682 652 653 695 508 395 579 671 608 538
0 0 0 0 0 0 0 0 0 0 0 0 0 0 0 0 0 0 0 0 0 0 0 0 21 21 12 79 201 302 251 144 76 22 103 228 256 301 341 383 467 464 368 311 426 532 648 770 881 890 864 912 986 872 816 977 1032 956 830 740 629 458 366 463 464 503 448 446 440 439 427 600 834 830 723 622 557 538 538 604 601 513 619 706 533 484
0 0 0 0 0 0 0 0 0 0 0 0 0 0 0 0 0 0 0 0 0 0 0 1 14 4 1 2 81 226 238 120 48 11 41 20 70 209 276 320 240 303 293 294 320 345 394 502 584 632 609 701 836 830 762 796 725 689 689 605 526 427 314 313 297 507 421 359 564 548 452 696 926 916 778 640 597 563 630 681 683 611 644 675 501 477
0 0 0 0 0 0 0 0 0 0 0 0 0 0 0 0 0 0 0 0 0 0 1 2 5 11 0 4 5 259 257 113 33 75 17 14 12 12 161 162 207 241 287 304 350 394 412 380 368 386 388 409 407 409 436 447 426 424 373 365 331 2 3 11 6 0 336 214 295 399 427 579 781 811 794 694 541 499 700 798 834 745 662 603 492 515
0 0 0 0 0 0 0 0 0 0 0 0 0 0 0 0 0 0 0 0 0 0 0 1 8 7 0 0 58 285 326 103 43 8 2 4 2 8 6 15 160 210 152 62 49 54 36 161 210 200 258 317 354 455 477 358 386 460 488 471 395 319 74 6 3 4 5 220 297 428 395 419 532 517 506 520 655 679 772 784 792 741 646 547 461 527
0 0 0 0 0 0 0 0 0 0 0 0 0 0 0 0 0 0 0 0 0 0 0 0 3 4 0 0 81 361 263 133 30 0 0 1 3 4 8 135 218 219 207 44 100 105 195 112 120 263 255 360 416 471 456 412 478 468 424 431 369 298 261 2 2 2 6 326 387 426 493 525 450 513 607 623 725 826 725 773 717 738 694 515 416 483
0 0 0 0 0 0 0 0 0 0 0 0 0 0 0 0 0 0 0 0 0 0 0 0 0 0 0 11 158 254 277 134 16 0 1 1 1 2 2 10 37 204 200 244 248 251 56 156 246 286 311 304 456 490 513 531 564 520 452 400 338 282 294 240 170 171 142 222 318 395 639 622 565 525 533 578 675 777 764 785 764 747 612 426 385 477
0 0 0 0 0 16 0 0 0 0 0 0 0 0 0 0 0 0 0 0 0 0 0 0 0 0 5 2 33 151 258 248 196 42 0 5 0 0 1 2 199 218 201 239 280 272 276 254 61 106 217 322 405 357 371 420 418 418 405 370 338 309 289 131 3 162 148 184 173 379 597 649 634 680 726 713 722 918 953 823 738 762 543 373 390 529
7 0 0 0 0 0 0 0 0 0 0 0 0 0 0 0 0 0 0 0 0 0 0 0 0 0 1 21 0 36 224 280 200 72 16 16 2 1 1 1 148 167 189 199 216 224 254 286 291 271 47 223 285 0 335 322 355 336 275 270 248 221 190 157 1 73 243 264 245 319 455 514 512 566 689 671 742 863 918 860 773 741 584 388 482 580
0 0 0 0 0 0 0 0 0 0 24 0 0 0 0 0 0 0 0 0 0 0 0 0 0 0 0 15 53 116 264 287 178 79 52 11 27 86 93 1 0 62 2 11 30 21 1 162 249 105 3 2 1 1 1 1 0 0 0 0 0 0 0 0 0 1 1 223 269 346 426 472 497 470 428 482 496 652 799 751 705 665 534 453 545 549
0 0 0 0 0 5 4 4 1 44 8 0 0 0 0 0 0 0 0 0 0 0 0 0 0 2 1 10 58 163 278 280 170 107 32 6 15 16 40 25 0 0 0 0 0 1 0 1 4 3 2 0 0 1 1 0 0 0 0 0 0 0 1 0 0 0 1 2 100 291 380 420 446 448 420 453 572 632 721 728 692 661 538 431 433 473
0 0 0 0 0 0 2 4 4 0 0 0 0 0 0 0 0 0 0 0 0 0 0 0 0 0 0 3 39 152 269 265 259 130 23 8 40 26 8 45 27 15 10 17 0 1 2 1 2 2 1 0 2 2 3 2 0 0 0 0 0 0 0 2 2 0 0 11 1 138 256 347 400 434 451 453 513 644 727 741 680 548 477 442 355 450
0 0 0 1 0 1 13 2 8 0 1 0 1 4 1 0 0 0 0 0 0 0 0 0 1 0 0 8 26 91 152 130 39 42 3 24 32 8 2 18 23 29 22 30 69 2 1 0 1 1 3 4 4 6 6 4 2 0 0 0 0 0 0 1 2 2 1 1 1 2 1 193 246 310 380 464 476 521 589 689 738 606 489 426 348 403
0 0 0 0 4 3 2 45 0 0 4 12 7 4 3 0 0 0 0 0 0 0 0 0 1 0 0 5 20 63 55 36 46 1 39 31 4 3 60 35 2 5 5 16 82 0 1 0 0 1 4 5 6 5 4 4 3 1 0 0 0 0 0 0 1 1 2 2 1 2 1 1 162 209 295 398 476 436 395 456 643 708 496 410 340 354
0 0 0 0 2 6 8 39 2 2 6 8 15 10 6 1 0 0 0 0 0 0 0 0 0 0 0 0 18 30 30 2 1 7 40 8 1 1 0 2 1 2 3 1 34 42 0 1 0 1 3 3 5 4 3 3 2 1 0 0 1 1 0 0 0 1 1 1 1 1 1 1 1 28 226 272 299 344 411 418 535 711 524 406 345 329
0 0 0 0 0 31 66 6 8 7 5 11 17 22 13 5 0 0 0 0 0 0 0 0 0 0 1 1 4 23 40 19 4 40 18 4 0 1 1 1 1 1 1 1 50 97 110 46 25 42 2 3 4 3 2 3 3 2 0 0 1 1 1 0 0 0 1 1 1 1 0 1 1 3 15 128 197 234 292 369 471 587 472 398 363 341
0 34 0 0 0 46 42 74 3 45 26 20 6 13 20 9 1 2 0 0 0 0 0 0 0 0 1 0 2 55 40 59 36 25 4 20 6 3 1 1 1 1 0 0 0 4 45 129 125 81 38 0 1 1 1 2 2 1 1 0 2 2 2 0 0 0 0 0 0 0 0 0 1 1 1 10 71 91 183 240 294 380 419 396 278 256
62 67 113 23 38 66 71 21 43 30 54 27 30 16 3 5 4 3 4 10 3 2 0 0 0 0 0 0 4 49 2 30 6 1 0 4 3 2 3 1 0 1 1 0 0 1 1 27 87 95 24 0 0 0 0 1 1 1 1 0 0 3 1 0 0 1 0 0 0 0 1 0 1 1 1 5 41 41 53 114 193 178 394 374 250 197
62 57 99 45 38 113 62 100 78 57 30 12 1 15 10 15 6 10 13 10 13 6 8 5 9 1 0 0 3 5 6 4 3 2 4 8 3 2 1 1 0 1 1 0 2 2 2 0 14 33 26 20 6 0 0 0 0 1 2 2 0 0 0 0 0 0 0 0 0 0 0 0 0 1 1 7 33 36 52 62 46 203 254 296 197 194
102 26 22 37 37 83 89 78 64 41 18 6 2 0 2 1 2 1 16 8 11 10 3 6 2 10 1 0 1 8 5 2 1 20 22 9 4 2 1 1 1 1 1 0 2 2 1 2 4 1 23 42 22 6 0 0 0 0 1 2 0 0 0 0 0 0 0 0 0 0 0 0 0 0 0 0 6 13 34 28 21 12 276 308 216 134
90 126 85 37 13 66 43 86 26 5 0 2 1 0 2 0 1 0 0 6 14 26 20 8 13 24 14 4 2 3 3 7 8 10 12 3 0 2 1 9 6 8 4 1 0 2 1 2 2 1 0 0 0 0 0 0 0 0 1 2 0 0 0 0 0 0 0 0 0 0 0 0 0 0 0 0 16 24 14 17 26 54 210 272 148 105
98 93 107 38 24 67 36 58 3 0 0 0 0 0 0 8 9 6 25 1 7 26 29 17 14 10 20 16 9 4 0 3 4 3 3 2 3 2 1 1 2 6 7 6 0 1 1 2 2 1 0 0 1 0 0 0 0 0 0 0 0 0 0 0 0 0 4 0 0 0 0 0 0 0 0 0 8 16 7 4 27 63 176 192 78 130
62 31 15 30 18 21 35 45 13 2 0 0 0 0 0 0 0 12 2 2 2 5 11 17 10 4 13 14 16 7 4 0 0 0 2 0 3 5 4 2 0 0 0 0 4 0 2 2 3 2 6 2 0 0 0 0 0 0 0 0 0 0 0 0 0 0 3 6 0 0 0 0 0 1 0 0 0 5 9 6 18 37 138 175 134 120
53 44 85 14 50 0 29 22 11 13 0 0 0 0 0 0 0 0 0 5 1 6 8 8 11 6 8 6 4 5 10 12 11 5 2 3 7 9 5 4 1 1 4 8 6 3 2 3 5 1 0 0 0 0 0 0 0 0 0 0 0 0 0 0 0 0 0 2 4 0 0 0 0 0 0 0 0 0 8 17 24 20 109 142 136 85
12 0 31 19 30 28 27 12 36 3 34 3 0 0 0 0 0 0 0 0 0 3 8 10 11 8 10 5 11 4 0 0 0 0 2 4 2 0 0 0 0 2 12 10 3 0 1 2 0 1 2 0 0 1 0 0 0 0 0 0 0 0 0 0 0 0 0 2 3 1 0 0 0 0 0 2 0 0 4 1 3 18 28 73 96 81
14 7 6 0 0 0 1 4 2 4 0 0 0 0 0 0 0 0 0 0 0 0 0 2 3 5 10 11 10 3 0 1 2 6 4 4 3 2 0 0 0 0 3 4 5 4 2 3 3 3 3 2 4 3 0 0 0 1 0 0 0 0 0 0 0 0 0 2 2 2 4 0 3 0 0 1 3 0 0 0 0 16 2 4 27 25
15 17 1 0 0 0 0 14 5 2 0 0 1 2 1 0 0 0 0 0 0 0 0 0 2 5 12 18 15 4 0 2 3 5 6 3 10 2 0 0 0 3 5 4 2 0 0 0 0 2 4 3 2 3 3 2 2 1 1 0 0 0 0 0 0 0 0 1 2 0 1 2 0 0 0 0 0 0 0 0 0 6 14 12 9 8
0 14 8 4 0 0 0 0 0 0 0 0 0 0 0 0 0 0 0 0 0 0 0 0 4 4 10 7 2 1 4 8 8 3 3 8 11 4 3 3 1 1 0 3 7 5 4 1 0 0 0 0 0 0 1 1 2 5 5 0 0 0 0 0 0 0 0 1 1 1 0 0 2 1 1 2 0 0 0 0 0 0 5 6 4 7
0 0 0 0 0 0 0 0 6 0 0 0 0 0 0 0 0 0 0 0 0 1 0 0 0 4 9 4 0 3 14 14 10 8 6 8 15 18 12 6 2 0 0 2 6 9 4 3 4 5 8 7 2 0 0 0 0 0 2 1 0 0 0 0 0 0 0 0 1 5 3 0 1 4 0 1 3 3 2 0 0 1 1 0 0 1
0 0 0 8 1 0 5 0 0 0 0 2 0 1 1 0 2 0 0 0 0 2 0 0 0 1 2 5 10 9 10 9 6 4 6 9 8 4 3 4 5 4 2 1 2 3 2 0 0 4 4 4 1 0 1 0 0 0 0 0 0 0 0 1 1 0 0 0 0 1 1 0 0 1 1 1 1 5 3 0 0 1 1 0 0 0
0 0 0 0 0 1 4 0 2 4 1 0 2 6 5 2 2 0 1 7 6 6 8 6 10 10 9 3 2 5 6 4 3 1 2 5 6 3 0 1 1 1 1 4 5 4 3 2 0 0 1 1 0 0 0 0 0 0 0 0 0 0 0 1 4 4 0 0 0 1 3 2 0 0 1 3 1 1 6 5 1 1 0 0 0 0
0 0 0 0 0 0 0 5 0 0 1 3 3 4 3 8 8 3 2 5 7 5 0 0 0 1 2 0 3 3 3 1 1 1 0 0 0 0 0 0 0 0 0 1 0 1 5 4 2 1 1 0 0 0 0 0 1 2 0 0 0 0 0 0 0 0 0 0 0 1 4 4 3 0 1 2 2 1 0 0 1 0 0 1 1 0
0 0 0 0 0 0 0 1 1 2 2 4 2 9 6 8 4 0 0 2 3 1 0 0 2 1 1 1 0 0 0 0 0 0 0 0 0 0 0 0 0 0 0 0 0 0 0 0 0 0 0 0 0 0 0 0 0 0 0 0 0 0 0 0 0 0 0 0 1 1 3 5 6 4 0 0 1 1 0 2 0 0 0 0 0 2
0 0 0 0 0 2 1 0 0 4 6 5 0 3 2 1 8 14 8 5 3 0 0 0 1 0 0 0 0 0 0 0 0 0 0 0 0 0 0 0 0 0 0 0 0 0 0 0 0 0 0 0 0 0 0 0 0 0 0 0 0 0 0 0 0 0 0 0 0 0 2 6 8 6 4 4 1 1 0 1 1 1 0 0 0 1
0 0 0 0 0 0 0 0 0 0 0 0 1 0 2 1 1 4 4 2 0 0 0 0 0 0 0 0 0 0 0 0 0 0 0 0 0 0 0 0 0 0 0 0 0 0 0 0 0 0 0 0 0 0 0 0 0 0 0 0 0 0 0 0 0 0 0 0 0 0 0 0 3 9 7 2 4 3 0 0 0 0 0 0 0 0
0 0 0 0 0 0 0 0 0 0 0 1 1 0 0 0 0 0 0 0 0 0 0 0 0 0 0 0 0 0 0 0 0 0 0 0 0 0 1 2 2 1 0 0 0 0 0 0 0 1 0 0 0 0 0 0 0 0 0 0 4 2 0 0 0 1 3 1 0 0 0 0 0 0 1 3 2 0 2 0 0 0 0 0 0 0
Wind_Speed
nan nan nan nan nan nan nan nan nan nan nan nan nan nan nan nan nan nan nan nan nan nan nan nan nan nan nan nan nan nan nan nan nan 26 27 24 22 23 23 21 19 16 15 17 21 23 23 22 23 24 24 23 20 18 18 18 19 21 21 20 22 25 25 23 24 24 24 24 27 30 25 21 20 20 25 27 30 28 19 18 21 19 17 17 20 21
nan nan nan nan nan nan nan nan nan nan nan nan nan nan nan nan nan nan nan nan nan nan nan nan nan nan nan nan nan nan nan nan nan 26 27 22 23 23 21 18 16 16 18 19 21 23 24 22 21 23 23 22 21 18 19 19 21 22 23 22 25 28 26 23 22 24 22 20 20 20 18 17 21 23 26 28 28 26 18 20 21 19 16 17 19 21
nan nan nan nan nan nan nan nan nan nan nan nan nan nan nan nan nan nan nan nan nan nan nan nan nan nan nan nan nan nan nan nan nan 29 26 25 22 20 19 17 16 17 17 19 19 23 24 23 22 22 22 23 21 19 18 19 22 24 24 24 26 28 29 25 23 24 22 21 20 19 13 12 20 24 28 30 25 21 22 22 20 19 16 16 18 19
nan nan nan nan nan nan nan nan nan nan nan nan nan nan nan nan nan nan nan nan nan nan nan nan nan nan nan nan nan nan nan nan 29 31 31 28 24 17 15 17 16 15 18 20 22 24 23 23 23 23 23 24 22 20 18 19 20 22 23 24 25 26 27 26 24 22 22 23 25 21 18 14 17 22 27 26 21 21 24 22 20 20 18 15 16 17
nan nan nan nan nan nan nan nan nan nan nan nan nan nan nan nan nan nan nan nan nan nan nan nan nan nan nan nan nan nan nan nan nan 34 34 29 24 19 19 16 16 16 19 22 24 25 24 23 23 22 22 24 23 21 20 19 20 21 22 24 24 24 24 24 20 21 25 28 31 28 21 18 16 20 23 22 19 21 23 22 17 18 16 11 14 17
nan nan nan nan nan nan nan nan nan nan nan nan nan nan nan nan nan nan nan nan nan nan nan nan nan nan nan nan nan nan nan nan 32 35 33 28 26 24 23 20 19 21 21 22 25 25 24 24 25 23 22 23 23 23 22 21 22 23 24 25 24 23 21 18 16 18 23 28 30 27 19 18 16 16 19 19 22 22 18 15 19 19 15 12 14 16
nan nan nan nan nan nan nan nan nan nan nan nan nan nan nan nan nan nan nan nan nan nan nan nan nan nan nan nan 30 26 nan nan 32 34 31 27 26 24 24 24 23 23 22 24 24 24 26 25 24 22 21 21 21 21 21 21 21 21 22 25 26 24 21 17 16 18 22 24 27 24 20 20 16 12 17 19 20 18 17 19 18 16 16 16 15 16
nan nan nan nan nan nan nan nan nan nan nan nan nan nan nan nan nan nan nan nan nan nan nan nan nan nan nan nan 24 nan nan nan 35 34 30 27 25 25 24 25 26 25 25 25 25 25 23 25 24 21 21 20 19 21 22 22 21 20 20 23 24 23 21 17 17 20 21 23 23 21 18 18 11 9 16 19 17 18 19 19 18 18 18 19 15 15
nan nan nan nan nan nan nan nan nan nan nan nan nan nan nan nan nan nan nan nan nan nan nan nan nan nan nan nan nan nan nan nan 34 31 27 26 25 25 26 27 28 28 28 26 26 27 26 26 24 22 21 20 19 21 22 21 20 19 19 20 19 20 19 15 16 19 19 20 21 19 16 13 12 16 21 21 21 20 21 20 21 20 20 19 17 13
nan nan nan nan nan nan nan nan nan nan nan nan nan nan nan nan nan nan nan nan nan nan nan nan nan nan nan nan 28 26 nan 33 nan 28 25 24 25 26 27 29 29 29 28 28 28 27 28 27 26 23 21 20 20 23 22 20 18 17 18 18 14 15 15 12 10 13 15 17 18 17 15 12 13 19 20 21 22 21 21 20 21 21 20 19 19 17
nan nan nan nan nan nan nan nan nan nan nan nan nan nan nan nan nan nan nan nan nan nan nan nan nan nan nan nan 31 31 nan nan 28 25 24 24 25 27 28 29 30 31 30 29 28 28 27 26 24 22 23 21 23 25 23 19 18 17 17 17 17 15 13 14 11 10 13 15 17 17 14 11 15 18 20 21 23 27 25 22 21 21 20 20 19 20
nan nan nan nan nan nan nan nan nan nan nan nan nan nan nan nan nan nan nan nan nan nan nan nan nan nan nan nan 32 33 32 31 28 27 27 25 25 26 27 28 30 31 30 29 28 27 27 27 26 24 23 22 23 26 21 20 19 18 15 14 16 16 15 16 15 14 14 16 17 18 17 15 15 18 20 22 26 28 24 22 23 23 23 20 21 21
nan nan nan nan nan nan nan nan nan nan nan nan nan nan nan nan nan nan nan nan nan nan nan nan nan nan nan nan nan 32 nan 30 29 29 28 26 27 27 28 29 30 30 29 28 25 26 27 27 26 24 21 21 23 25 23 22 19 17 16 15 14 14 15 14 15 15 15 16 18 20 19 17 17 18 20 23 24 23 21 17 17 22 22 22 22 22
nan nan nan nan nan nan nan nan nan nan nan nan nan nan nan nan nan nan nan nan nan nan nan nan nan nan nan nan nan 33 nan 31 31 31 30 28 29 30 30 28 28 27 26 24 23 24 25 26 26 25 24 24 23 24 23 21 19 17 17 17 16 15 17 15 14 15 15 14 16 20 20 19 18 17 19 21 22 22 21 18 15 17 20 23 21 22
nan nan nan nan nan nan nan nan nan nan nan nan nan nan nan nan nan nan nan nan nan nan nan nan nan nan nan nan nan nan 31 33 33 32 32 32 30 31 31 30 28 26 23 22 23 24 24 24 25 26 26 26 25 25 23 22 20 19 19 19 18 17 18 17 16 19 19 18 19 22 22 20 19 18 19 19 20 20 19 20 18 18 20 23 23 21
nan nan nan nan nan nan nan nan nan nan nan nan nan nan nan nan nan nan nan nan nan nan nan nan nan nan nan nan 31 30 30 36 nan nan 34 33 32 32 33 29 24 22 23 23 24 24 25 25 26 27 26 24 24 25 24 23 21 21 20 19 18 16 17 20 22 27 30 30 27 25 25 22 18 17 18 20 21 19 20 21 20 21 22 23 24 23
nan nan nan nan nan nan nan nan nan nan nan nan nan nan nan nan nan nan nan nan nan nan nan nan nan nan nan nan 33 30 37 37 nan nan 35 35 34 33 32 27 23 22 21 23 23 24 24 25 27 27 25 23 24 25 24 22 20 20 21 20 19 16 15 19 27 35 28 24 21 21 20 17 14 13 16 18 21 21 23 23 22 22 22 23 24 24
nan nan nan nan nan nan nan nan nan nan nan nan nan nan nan nan nan nan nan nan nan nan nan nan nan nan nan nan nan 32 35 38 nan nan nan nan nan 31 27 25 23 22 21 23 24 24 24 24 26 26 25 25 24 24 22 21 19 20 20 20 20 20 17 19 25 30 25 23 21 20 19 17 14 14 19 21 22 24 28 28 26 25 25 21 22 24
nan nan nan nan nan nan nan nan nan nan nan nan nan nan nan nan nan nan nan nan nan nan nan nan nan nan nan nan nan 30 35 38 nan nan nan nan nan nan 26 26 25 23 23 24 24 24 23 23 23 24 24 24 24 21 20 19 19 19 20 19 18 nan nan nan nan nan 19 20 25 25 23 21 19 21 24 26 28 32 27 24 26 25 23 23 22 22
nan nan nan nan nan nan nan nan nan nan nan nan nan nan nan nan nan nan nan nan nan nan nan nan nan nan nan nan nan 32 38 39 nan nan nan nan nan nan nan nan 25 23 22 nan nan nan nan 22 24 25 24 24 22 20 18 17 18 21 21 21 21 18 nan nan nan nan nan 26 25 24 24 22 18 21 28 29 28 22 17 20 23 24 24 21 21 22
nan nan nan nan nan nan nan nan nan nan nan nan nan nan nan nan nan nan nan nan nan nan nan nan nan nan nan nan nan 34 35 36 nan nan nan nan nan nan nan 27 24 23 23 nan 24 23 23 23 24 26 25 23 21 20 19 18 18 18 19 19 20 19 18 nan nan nan nan 26 25 22 21 22 21 20 23 21 21 19 22 24 23 23 23 25 22 24
nan nan nan nan nan nan nan nan nan nan nan nan nan nan nan nan nan nan nan nan nan nan nan nan nan nan nan nan 34 35 34 35 nan nan nan nan nan nan nan nan nan 24 25 24 24 23 nan 21 20 21 22 21 20 19 18 18 17 17 18 17 17 18 18 15 13 18 25 30 26 21 19 22 24 21 20 24 25 23 26 27 25 24 27 26 26 28
nan nan nan nan nan nan nan nan nan nan nan nan nan nan nan nan nan nan nan nan nan nan nan nan nan nan nan nan nan 36 35 34 32 nan nan nan nan nan nan nan 24 24 24 24 24 23 21 19 nan 16 18 19 18 17 16 16 16 16 16 16 16 16 15 13 nan 16 23 26 28 23 23 24 24 22 20 23 25 23 23 25 25 26 25 27 29 30
nan nan nan nan nan nan nan nan nan nan nan nan nan nan nan nan nan nan nan nan nan nan nan nan nan nan nan nan nan nan 35 32 28 nan nan nan nan nan nan nan 23 24 24 24 23 21 19 16 15 15 nan 18 17 nan 17 15 15 15 15 15 14 14 13 11 nan nan 20 24 29 28 23 22 20 22 25 25 18 16 19 22 23 24 23 25 28 27
nan nan nan nan nan nan nan nan nan nan nan nan nan nan nan nan nan nan nan nan nan nan nan nan nan nan nan nan nan 32 32 30 27 nan nan nan nan nan nan nan nan nan nan nan nan nan nan 17 16 16 nan nan nan nan nan nan nan nan nan nan nan nan nan nan nan nan nan 17 21 22 19 14 17 23 23 18 19 20 20 20 22 24 26 25 23 22
nan nan nan nan nan nan nan nan nan nan nan nan nan nan nan nan nan nan nan nan nan nan nan nan nan nan nan nan nan 27 27 27 24 24 nan nan nan nan nan nan nan nan nan nan nan nan nan nan nan nan nan nan nan nan nan nan nan nan nan nan nan nan nan nan nan nan nan nan 14 15 13 12 14 21 21 21 23 23 20 20 21 21 19 19 20 22
nan nan nan nan nan nan nan nan nan nan nan nan nan nan nan nan nan nan nan nan nan nan nan nan nan nan nan nan nan 23 24 24 23 25 nan nan nan nan nan nan nan nan nan nan nan nan nan nan nan nan nan nan nan nan nan nan nan nan nan nan nan nan nan nan nan nan nan nan nan 15 13 11 13 17 19 21 23 22 21 21 21 20 19 21 21 22
nan nan nan nan nan nan nan nan nan nan nan nan nan nan nan nan nan nan nan nan nan nan nan nan nan nan nan nan nan nan 24 24 nan nan nan nan nan nan nan nan nan nan nan nan nan nan nan nan nan nan nan nan nan nan nan nan nan nan nan nan nan nan nan nan nan nan nan nan nan nan nan 14 13 15 18 19 17 17 21 24 22 21 22 23 23 23
nan nan nan nan nan nan nan nan nan nan nan nan nan nan nan nan nan nan nan nan nan nan nan nan nan nan nan nan nan nan nan nan nan nan nan nan nan nan nan nan nan nan nan nan nan nan nan nan nan nan nan nan nan nan nan nan nan nan nan nan nan nan nan nan nan nan nan nan nan nan nan nan 16 15 17 18 16 16 19 22 23 22 23 25 27 29
nan nan nan nan nan nan nan nan nan nan nan nan nan nan nan nan nan nan nan nan nan nan nan nan nan nan nan nan nan nan nan nan nan nan nan nan nan nan nan nan nan nan nan nan nan nan nan nan nan nan nan nan nan nan nan nan nan nan nan nan nan nan nan nan nan nan nan nan nan nan nan nan nan nan 17 19 18 17 18 19 21 24 26 26 27 28
nan nan nan nan nan nan nan nan nan nan nan nan nan nan nan nan nan nan nan nan nan nan nan nan nan nan nan nan nan nan nan nan nan nan nan nan nan nan nan nan nan nan nan nan nan nan 23 nan nan nan nan nan nan nan nan nan nan nan nan nan nan nan nan nan nan nan nan nan nan nan nan nan nan nan nan 19 19 19 19 18 20 22 24 26 28 29
nan nan nan nan nan nan nan nan nan nan nan nan nan nan nan nan nan nan nan nan nan nan nan nan nan nan nan nan nan nan nan nan nan nan nan nan nan nan nan nan nan nan nan nan nan nan nan 22 22 nan nan nan nan nan nan nan nan nan nan nan nan nan nan nan nan nan nan nan nan nan nan nan nan nan nan nan nan nan 19 20 21 21 23 26 28 28
nan nan 28 nan nan nan nan nan nan nan nan nan nan nan nan nan nan nan nan nan nan nan nan nan nan nan nan nan nan nan nan nan nan nan nan nan nan nan nan nan nan nan nan nan nan nan nan nan nan nan nan nan nan nan nan nan nan nan nan nan nan nan nan nan nan nan nan nan nan nan nan nan nan nan nan nan nan nan nan 22 22 23 25 25 26 28
nan nan nan nan nan 29 nan 33 nan nan nan nan nan nan nan nan nan nan nan nan nan nan nan nan nan nan nan nan nan nan nan nan nan nan nan nan nan nan nan nan nan nan nan nan nan nan nan nan nan nan nan nan nan nan nan nan nan nan nan nan nan nan nan nan nan nan nan nan nan nan nan nan nan nan nan nan nan nan nan nan nan 27 28 29 29 29
24 nan nan nan nan nan nan nan nan nan nan nan nan nan nan nan nan nan nan nan nan nan nan nan nan nan nan nan nan nan nan nan nan nan nan nan nan nan nan nan nan nan nan nan nan nan nan nan nan nan nan nan nan nan nan nan nan nan nan nan nan nan nan nan nan nan nan nan nan nan nan nan nan nan nan nan nan nan nan nan nan nan 31 31 30 30
nan 26 nan nan nan nan nan nan nan nan nan nan nan nan nan nan nan nan nan nan nan nan nan nan nan nan nan nan nan nan nan nan nan nan nan nan nan nan nan nan nan nan nan nan nan nan nan nan nan nan nan nan nan nan nan nan nan nan nan nan nan nan nan nan nan nan nan nan nan nan nan nan nan nan nan nan nan nan nan nan nan nan 30 32 33 33
nan nan 27 nan nan nan nan nan nan nan nan nan nan nan nan nan nan nan nan nan nan nan nan nan nan nan nan nan nan nan nan nan nan nan nan nan nan nan nan nan nan nan nan nan nan nan nan nan nan nan nan nan nan nan nan nan nan nan nan nan nan nan nan nan nan nan nan nan nan nan nan nan nan nan nan nan nan nan nan nan nan nan 27 33 nan 36
nan nan nan nan nan nan nan nan nan nan nan nan nan nan nan nan nan nan nan nan nan nan nan nan nan nan nan nan nan nan nan nan nan nan nan nan nan nan nan nan nan nan nan nan nan nan nan nan nan nan nan nan nan nan nan nan nan nan nan nan nan nan nan nan nan nan nan nan nan nan nan nan nan nan nan nan nan nan nan nan nan nan 29 32 35 39
nan nan nan nan nan nan nan nan nan nan nan nan nan nan nan nan nan nan nan nan nan nan nan nan nan nan nan nan nan nan nan nan nan nan nan nan nan nan nan nan nan nan nan nan nan nan nan nan nan nan nan nan nan nan nan nan nan nan nan nan nan nan nan nan nan nan nan nan nan nan nan nan nan nan nan nan nan nan nan nan nan nan 33 37 40 nan
nan nan nan nan nan nan nan nan nan nan nan nan nan nan nan nan nan nan nan nan nan nan nan nan nan nan nan nan nan nan nan nan nan nan nan nan nan nan nan nan nan nan nan nan nan nan nan nan nan nan nan nan nan nan nan nan nan nan nan nan nan nan nan nan nan nan nan nan nan nan nan nan nan nan nan nan nan nan nan nan nan nan nan nan nan nan
nan nan nan nan nan nan nan nan nan nan nan nan nan nan nan nan nan nan nan nan nan nan nan nan nan nan nan nan nan nan nan nan nan nan nan nan nan nan nan nan nan nan nan nan nan nan nan nan nan nan nan nan nan nan nan nan nan nan nan nan nan nan nan nan nan nan nan nan nan nan nan nan nan nan nan nan nan nan nan nan nan nan nan nan nan nan
nan nan nan nan nan nan nan nan nan nan nan nan nan nan nan nan nan nan nan nan nan nan nan nan nan nan nan nan nan nan nan nan nan nan nan nan nan nan nan nan nan nan nan nan nan nan nan nan nan nan nan nan nan nan nan nan nan nan nan nan nan nan nan nan nan nan nan nan nan nan nan nan nan nan nan nan nan nan nan nan nan nan nan nan nan nan
nan nan nan nan nan nan nan nan nan nan nan nan nan nan nan nan nan nan nan nan nan nan nan nan nan nan nan nan nan nan nan nan nan nan nan nan nan nan nan nan nan nan nan nan nan nan nan nan nan nan nan nan nan nan nan nan nan nan nan nan nan nan nan nan nan nan nan nan nan nan nan nan nan nan nan nan nan nan nan nan nan nan nan nan nan nan
nan nan nan nan nan nan nan nan nan nan nan nan nan nan nan nan nan nan nan nan nan nan nan nan nan nan nan nan nan nan nan nan nan nan nan nan nan nan nan nan nan nan nan nan nan nan nan nan nan nan nan nan nan nan nan nan nan nan nan nan nan nan nan nan nan nan nan nan nan nan nan nan nan nan nan nan nan nan nan nan nan nan nan nan nan nan
nan nan nan nan nan nan nan nan nan nan nan nan nan nan nan nan nan nan nan nan nan nan nan nan nan nan nan nan nan nan nan nan nan nan nan nan nan nan nan nan nan nan nan nan nan nan nan nan nan nan nan nan nan nan nan nan nan nan nan nan nan nan nan nan nan nan nan nan nan nan nan nan nan nan nan nan nan nan nan nan nan nan nan nan nan nan
nan nan nan nan nan nan nan nan nan nan nan nan nan nan nan nan nan nan nan nan nan nan nan nan nan nan nan nan nan nan nan nan nan nan nan nan nan nan nan nan nan nan nan nan nan nan nan nan nan nan nan nan nan nan nan nan nan nan nan nan nan nan nan nan nan nan nan nan nan nan nan nan nan nan nan nan nan nan nan nan nan nan nan nan nan nan
nan nan nan nan nan nan nan nan nan nan nan nan nan nan nan nan nan nan nan nan nan nan nan nan nan nan nan nan nan nan nan nan nan nan nan nan nan nan nan nan nan nan nan nan nan nan nan nan nan nan nan nan nan nan nan nan nan nan nan nan nan nan nan nan nan nan nan nan nan nan nan nan nan nan nan nan nan nan nan nan nan nan nan nan nan nan
nan nan nan nan nan nan nan nan nan nan nan nan nan nan nan nan nan nan nan nan nan nan nan nan nan nan nan nan nan nan nan nan nan nan nan nan nan nan nan nan nan nan nan nan nan nan nan nan nan nan nan nan nan nan nan nan nan nan nan nan nan nan nan nan nan nan nan nan nan nan nan nan nan nan nan nan nan nan nan nan nan nan nan nan nan nan
nan nan nan nan nan nan nan nan nan nan nan nan nan nan nan nan nan nan nan nan nan nan nan nan nan nan nan nan nan nan nan nan nan nan nan nan nan nan nan nan nan nan nan nan nan nan nan nan nan nan nan nan nan nan nan nan nan nan nan nan nan nan nan nan nan nan nan nan nan nan nan nan nan nan nan nan nan nan nan nan nan nan nan nan nan nan
nan nan nan nan nan nan nan nan nan nan nan nan nan nan nan nan nan nan nan nan nan nan nan nan nan nan nan nan nan nan nan nan nan nan nan nan nan nan nan nan nan nan nan nan nan nan nan nan nan nan nan nan nan nan nan nan nan nan nan nan nan nan nan nan nan nan nan nan nan nan nan nan nan nan nan nan nan nan nan nan nan nan nan nan nan nan
nan nan nan nan nan nan nan nan nan nan nan nan nan nan nan nan nan nan nan nan nan nan nan nan nan nan nan nan nan nan nan nan nan nan nan nan nan nan nan nan nan nan nan nan nan nan nan nan nan nan nan nan nan nan nan nan nan nan nan nan nan nan nan nan nan nan nan nan nan nan nan nan nan nan nan nan nan nan nan nan nan nan nan nan nan nan
Wind_Direction
nan nan nan nan nan nan nan nan nan nan nan nan nan nan nan nan nan nan nan nan nan nan nan nan nan nan nan nan nan nan nan nan nan 239 247 241 236 231 229 245 266 292 295 272 272 275 277 283 284 291 297 301 299 292 292 295 293 290 288 286 283 277 273 273 286 296 303 308 310 316 309 281 268 264 254 257 255 259 264 262 258 258 254 247 242 242
nan nan nan nan nan nan nan nan nan nan nan nan nan nan nan nan nan nan nan nan nan nan nan nan nan nan nan nan nan nan nan nan nan 240 238 242 241 237 246 255 271 277 268 278 280 284 286 287 291 297 300 301 305 294 294 300 298 298 297 298 290 289 289 291 297 287 282 286 292 309 322 285 271 264 255 255 254 258 266 261 259 260 257 251 244 237
nan nan nan nan nan nan nan nan nan nan nan nan nan nan nan nan nan nan nan nan nan nan nan nan nan nan nan nan nan nan nan nan nan 243 236 230 236 247 255 265 269 275 282 284 287 287 292 298 297 297 295 294 295 293 296 297 300 304 304 303 297 296 302 304 301 295 296 290 281 289 298 294 268 254 251 249 254 265 265 255 251 255 256 252 247 243
nan nan nan nan nan nan nan nan nan nan nan nan nan nan nan nan nan nan nan nan nan nan nan nan nan nan nan nan nan nan nan nan 245 246 238 229 224 233 265 284 285 284 283 285 287 290 291 294 297 295 294 290 293 297 302 302 303 298 299 298 297 298 302 304 303 306 299 289 287 280 279 266 248 251 249 249 255 255 253 251 251 248 245 240 241 241
nan nan nan nan nan nan nan nan nan nan nan nan nan nan nan nan nan nan nan nan nan nan nan nan nan nan nan nan nan nan nan nan nan 240 235 230 227 230 233 243 256 275 282 284 283 287 288 291 294 297 291 292 301 307 311 307 295 290 290 295 300 301 304 305 307 311 304 292 294 300 284 277 266 250 245 247 251 255 250 246 251 256 259 242 231 233
nan nan nan nan nan nan nan nan nan nan nan nan nan nan nan nan nan nan nan nan nan nan nan nan nan nan nan nan nan nan nan nan 242 240 234 233 233 230 231 236 244 250 257 269 281 290 292 293 289 296 300 308 313 314 313 307 298 294 294 295 294 289 293 306 316 312 304 302 308 317 312 306 292 242 236 251 255 260 264 251 243 251 253 247 243 237
nan nan nan nan nan nan nan nan nan nan nan nan nan nan nan nan nan nan nan nan nan nan nan nan nan nan nan nan 224 236 nan nan 243 237 234 238 238 237 239 244 249 251 259 269 277 291 292 290 295 300 301 304 308 306 305 301 294 289 287 286 283 288 295 305 315 310 304 304 313 323 319 316 303 238 226 250 261 270 256 243 245 250 246 237 243 240
nan nan nan nan nan nan nan nan nan nan nan nan nan nan nan nan nan nan nan nan nan nan nan nan nan nan nan nan 231 nan nan nan 234 233 236 239 242 245 249 250 253 257 260 274 284 290 286 283 284 287 290 295 300 302 300 297 295 288 282 284 287 289 292 297 304 303 304 304 311 316 307 300 305 266 255 262 262 259 252 245 246 245 245 245 234 232
nan nan nan nan nan nan nan nan nan nan nan nan nan nan nan nan nan nan nan nan nan nan nan nan nan nan nan nan nan nan nan nan 230 231 234 237 245 252 254 253 255 259 262 264 267 272 274 277 280 283 287 291 293 294 290 287 289 288 282 283 293 290 286 290 299 297 298 297 303 316 318 304 286 278 268 251 247 249 245 243 237 240 242 247 248 241
nan nan nan nan nan nan nan nan nan nan nan nan nan nan nan nan nan nan nan nan nan nan nan nan nan nan nan nan 231 236 nan 231 nan 233 234 239 248 253 258 258 257 259 262 264 266 267 271 275 276 281 284 281 285 284 277 275 279 279 281 280 284 285 287 293 292 287 292 294 295 306 317 306 274 269 267 253 243 243 245 245 239 239 243 242 245 245
nan nan nan nan nan nan nan nan nan nan nan nan nan nan nan nan nan nan nan nan nan nan nan nan nan nan nan nan 236 232 nan nan 235 242 242 244 248 254 259 261 261 260 260 262 265 266 269 271 274 281 282 281 278 273 264 270 276 276 278 272 268 271 276 290 288 271 276 279 283 286 289 284 267 261 264 254 241 232 234 236 240 246 246 242 244 242
nan nan nan nan nan nan nan nan nan nan nan nan nan nan nan nan nan nan nan nan nan nan nan nan nan nan nan nan 241 240 238 237 243 247 249 248 253 258 260 262 261 260 258 258 261 263 266 267 266 271 270 274 275 268 264 279 276 268 267 263 263 258 268 281 283 271 261 263 267 269 271 267 254 251 250 250 243 237 230 222 223 232 240 240 241 243
nan nan nan nan nan nan nan nan nan nan nan nan nan nan nan nan nan nan nan nan nan nan nan nan nan nan nan nan nan 244 nan 245 248 252 254 254 257 258 257 257 257 255 254 254 257 260 262 265 266 267 269 267 266 265 269 275 273 268 267 257 249 261 268 276 281 272 257 255 261 264 265 263 260 252 247 248 248 241 241 243 229 226 233 237 239 242
nan nan nan nan nan nan nan nan nan nan nan nan nan nan nan nan nan nan nan nan nan nan nan nan nan nan nan nan nan 247 nan 250 253 256 258 261 262 259 259 260 256 254 254 256 257 257 258 260 261 261 264 266 268 266 266 269 269 271 271 271 271 271 269 266 265 258 248 245 253 255 258 262 262 256 248 247 248 241 242 245 244 237 231 236 239 245
nan nan nan nan nan nan nan nan nan nan nan nan nan nan nan nan nan nan nan nan nan nan nan nan nan nan nan nan nan nan 254 255 255 257 259 263 265 262 262 259 253 252 256 259 260 257 256 257 258 259 258 258 262 265 266 267 267 268 265 265 267 271 276 265 252 249 251 254 256 258 254 250 248 253 247 243 248 248 244 242 243 248 241 238 241 246
nan nan nan nan nan nan nan nan nan nan nan nan nan nan nan nan nan nan nan nan nan nan nan nan nan nan nan nan 249 250 257 258 nan nan 263 264 262 258 257 256 253 252 252 251 253 253 252 253 254 255 256 259 262 261 265 263 266 263 259 261 264 270 269 260 248 241 238 240 242 241 242 238 237 244 245 242 245 248 247 245 245 247 247 243 244 243
nan nan nan nan nan nan nan nan nan nan nan nan nan nan nan nan nan nan nan nan nan nan nan nan nan nan nan nan 250 248 260 261 nan nan 265 263 258 255 253 252 251 250 252 250 250 251 251 251 252 256 256 258 259 264 264 264 263 256 252 250 246 251 254 255 255 253 249 255 261 265 260 251 250 243 249 247 246 247 248 247 244 245 244 243 243 243
nan nan nan nan nan nan nan nan nan nan nan nan nan nan nan nan nan nan nan nan nan nan nan nan nan nan nan nan nan 251 265 266 nan nan nan nan nan 252 249 248 248 247 250 251 250 251 253 254 252 253 256 256 260 264 267 268 264 258 252 246 236 235 239 251 265 272 266 253 251 252 256 253 249 237 234 236 238 238 241 238 236 237 239 239 241 242
nan nan nan nan nan nan nan nan nan nan nan nan nan nan nan nan nan nan nan nan nan nan nan nan nan nan nan nan nan 260 268 268 nan nan nan nan nan nan 247 246 246 245 247 246 245 246 249 251 252 251 252 254 258 263 265 261 257 251 247 246 242 nan nan nan nan nan 269 252 253 254 249 243 235 229 229 232 230 232 230 233 238 239 237 236 238 240
nan nan nan nan nan nan nan nan nan nan nan nan nan nan nan nan nan nan nan nan nan nan nan nan nan nan nan nan nan 259 266 268 nan nan nan nan nan nan nan nan 245 246 249 nan nan nan nan 257 258 257 257 257 258 259 256 250 246 239 239 239 237 237 nan nan nan nan nan 235 244 251 245 239 242 240 239 235 236 241 239 239 243 242 238 238 239 239
nan nan nan nan nan nan nan nan nan nan nan nan nan nan nan nan nan nan nan nan nan nan nan nan nan nan nan nan nan 256 263 264 nan nan nan nan nan nan nan 246 246 247 249 nan 248 250 253 258 261 260 259 259 261 259 252 250 247 246 248 245 245 245 249 nan nan nan nan 230 238 246 243 244 248 253 254 255 249 238 231 229 233 239 239 240 241 243
nan nan nan nan nan nan nan nan nan nan nan nan nan nan nan nan nan nan nan nan nan nan nan nan nan nan nan nan 246 250 256 260 nan nan nan nan nan nan nan nan nan 248 248 249 249 250 nan 263 266 262 255 254 255 252 246 248 253 252 255 257 255 253 259 262 250 223 216 214 219 233 241 238 245 252 242 232 232 235 232 230 232 235 240 247 250 252
nan nan nan nan nan nan nan nan nan nan nan nan nan nan nan nan nan nan nan nan nan nan nan nan nan nan nan nan nan 244 248 253 258 nan nan nan nan nan nan nan 248 248 249 250 249 251 258 262 nan 255 245 242 242 244 243 249 251 254 256 254 259 256 249 263 nan 227 218 217 213 220 233 235 244 250 240 232 228 228 234 236 240 242 245 249 254 257
nan nan nan nan nan nan nan nan nan nan nan nan nan nan nan nan nan nan nan nan nan nan nan nan nan nan nan nan nan nan 249 249 247 nan nan nan nan nan nan nan 249 248 247 248 250 253 255 256 251 248 nan 239 236 nan 234 242 248 249 251 251 256 254 250 249 nan nan 215 218 213 211 225 235 249 257 249 242 241 239 239 242 247 255 257 256 257 263
nan nan nan nan nan nan nan nan nan nan nan nan nan nan nan nan nan nan nan nan nan nan nan nan nan nan nan nan nan 250 251 250 249 nan nan nan nan nan nan nan nan nan nan nan nan nan nan 246 245 249 nan nan nan nan nan nan nan nan nan nan nan nan nan nan nan nan nan 213 210 207 209 222 240 246 251 254 249 245 246 247 248 255 257 250 249 259
nan nan nan nan nan nan nan nan nan nan nan nan nan nan nan nan nan nan nan nan nan nan nan nan nan nan nan nan nan 253 254 253 250 251 nan nan nan nan nan nan nan nan nan nan nan nan nan nan nan nan nan nan nan nan nan nan nan nan nan nan nan nan nan nan nan nan nan nan 200 202 202 216 238 248 253 255 257 259 258 253 247 248 255 268 267 257
nan nan nan nan nan nan nan nan nan nan nan nan nan nan nan nan nan nan nan nan nan nan nan nan nan nan nan nan nan 258 253 254 251 247 nan nan nan nan nan nan nan nan nan nan nan nan nan nan nan nan nan nan nan nan nan nan nan nan nan nan nan nan nan nan nan nan nan nan nan 208 209 219 232 254 259 257 258 262 264 261 256 254 256 258 260 266
nan nan nan nan nan nan nan nan nan nan nan nan nan nan nan nan nan nan nan nan nan nan nan nan nan nan nan nan nan nan 255 253 nan nan nan nan nan nan nan nan nan nan nan nan nan nan nan nan nan nan nan nan nan nan nan nan nan nan nan nan nan nan nan nan nan nan nan nan nan nan nan 216 236 258 268 268 271 273 266 267 266 261 255 256 260 263
nan nan nan nan nan nan nan nan nan nan nan nan nan nan nan nan nan nan nan nan nan nan nan nan nan nan nan nan nan nan nan nan nan nan nan nan nan nan nan nan nan nan nan nan nan nan nan nan nan nan nan nan nan nan nan nan nan nan nan nan nan nan nan nan nan nan nan nan nan nan nan nan 232 254 270 280 285 282 278 275 274 271 265 258 256 258
nan nan nan nan nan nan nan nan nan nan nan nan nan nan nan nan nan nan nan nan nan nan nan nan nan nan nan nan nan nan nan nan nan nan nan nan nan nan nan nan nan nan nan nan nan nan nan nan nan nan nan nan nan nan nan nan nan nan nan nan nan nan nan nan nan nan nan nan nan nan nan nan nan nan 267 276 281 281 283 286 282 276 271 266 263 262
nan nan nan nan nan nan nan nan nan nan nan nan nan nan nan nan nan nan nan nan nan nan nan nan nan nan nan nan nan nan nan nan nan nan nan nan nan nan nan nan nan nan nan nan nan nan 245 nan nan nan nan nan nan nan nan nan nan nan nan nan nan nan nan nan nan nan nan nan nan nan nan nan nan nan nan 271 276 277 281 288 281 273 271 267 265 263
nan nan nan nan nan nan nan nan nan nan nan nan nan nan nan nan nan nan nan nan nan nan nan nan nan nan nan nan nan nan nan nan nan nan nan nan nan nan nan nan nan nan nan nan nan nan nan 249 252 nan nan nan nan nan nan nan nan nan nan nan nan nan nan nan nan nan nan nan nan nan nan nan nan nan nan nan nan nan 281 281 278 276 272 268 264 261
nan nan 227 nan nan nan nan nan nan nan nan nan nan nan nan nan nan nan nan nan nan nan nan nan nan nan nan nan nan nan nan nan nan nan nan nan nan nan nan nan nan nan nan nan nan nan nan nan nan nan nan nan nan nan nan nan nan nan nan nan nan nan nan nan nan nan nan nan nan nan nan nan nan nan nan nan nan nan nan 278 275 271 268 265 263 262
nan nan nan nan nan 232 nan 224 nan nan nan nan nan nan nan nan nan nan nan nan nan nan nan nan nan nan nan nan nan nan nan nan nan nan nan nan nan nan nan nan nan nan nan nan nan nan nan nan nan nan nan nan nan nan nan nan nan nan nan nan nan nan nan nan nan nan nan nan nan nan nan nan nan nan nan nan nan nan nan nan nan 263 258 258 258 260
233 nan nan nan nan nan nan nan nan nan nan nan nan nan nan nan nan nan nan nan nan nan nan nan nan nan nan nan nan nan nan nan nan nan nan nan nan nan nan nan nan nan nan nan nan nan nan nan nan nan nan nan nan nan nan nan nan nan nan nan nan nan nan nan nan nan nan nan nan nan nan nan nan nan nan nan nan nan nan nan nan nan 251 252 251 253
nan 237 nan nan nan nan nan nan nan nan nan nan nan nan nan nan nan nan nan nan nan nan nan nan nan nan nan nan nan nan nan nan nan nan nan nan nan nan nan nan nan nan nan nan nan nan nan nan nan nan nan nan nan nan nan nan nan nan nan nan nan nan nan nan nan nan nan nan nan nan nan nan nan nan nan nan nan nan nan nan nan nan 250 251 248 247
nan nan 238 nan nan nan nan nan nan nan nan nan nan nan nan nan nan nan nan nan nan nan nan nan nan nan nan nan nan nan nan nan nan nan nan nan nan nan nan nan nan nan nan nan nan nan nan nan nan nan nan nan nan nan nan nan nan nan nan nan nan nan nan nan nan nan nan nan nan nan nan nan nan nan nan nan nan nan nan nan nan nan 243 250 nan 250
nan nan nan nan nan nan nan nan nan nan nan nan nan nan nan nan nan nan nan nan nan nan nan nan nan nan nan nan nan nan nan nan nan nan nan nan nan nan nan nan nan nan nan nan nan nan nan nan nan nan nan nan nan nan nan nan nan nan nan nan nan nan nan nan nan nan nan nan nan nan nan nan nan nan nan nan nan nan nan nan nan nan 240 246 253 249
nan nan nan nan nan nan nan nan nan nan nan nan nan nan nan nan nan nan nan nan nan nan nan nan nan nan nan nan nan nan nan nan nan nan nan nan nan nan nan nan nan nan nan nan nan nan nan nan nan nan nan nan nan nan nan nan nan nan nan nan nan nan nan nan nan nan nan nan nan nan nan nan nan nan nan nan nan nan nan nan nan nan 245 239 242 nan
nan nan nan nan nan nan nan nan nan nan nan nan nan nan nan nan nan nan nan nan nan nan nan nan nan nan nan nan nan nan nan nan nan nan nan nan nan nan nan nan nan nan nan nan nan nan nan nan nan nan nan nan nan nan nan nan nan nan nan nan nan nan nan nan nan nan nan nan nan nan nan nan nan nan nan nan nan nan nan nan nan nan nan nan nan nan
nan nan nan nan nan nan nan nan nan nan nan nan nan nan nan nan nan nan nan nan nan nan nan nan nan nan nan nan nan nan nan nan nan nan nan nan nan nan nan nan nan nan nan nan nan nan nan nan nan nan nan nan nan nan nan nan nan nan nan nan nan nan nan nan nan nan nan nan nan nan nan nan nan nan nan nan nan nan nan nan nan nan nan nan nan nan
nan nan nan nan nan nan nan nan nan nan nan nan nan nan nan nan nan nan nan nan nan nan nan nan nan nan nan nan nan nan nan nan nan nan nan nan nan nan nan nan nan nan nan nan nan nan nan nan nan nan nan nan nan nan nan nan nan nan nan nan nan nan nan nan nan nan nan nan nan nan nan nan nan nan nan nan nan nan nan nan nan nan nan nan nan nan
nan nan nan nan nan nan nan nan nan nan nan nan nan nan nan nan nan nan nan nan nan nan nan nan nan nan nan nan nan nan nan nan nan nan nan nan nan nan nan nan nan nan nan nan nan nan nan nan nan nan nan nan nan nan nan nan nan nan nan nan nan nan nan nan nan nan nan nan nan nan nan nan nan nan nan nan nan nan nan nan nan nan nan nan nan nan
nan nan nan nan nan nan nan nan nan nan nan nan nan nan nan nan nan nan nan nan nan nan nan nan nan nan nan nan nan nan nan nan nan nan nan nan nan nan nan nan nan nan nan nan nan nan nan nan nan nan nan nan nan nan nan nan nan nan nan nan nan nan nan nan nan nan nan nan nan nan nan nan nan nan nan nan nan nan nan nan nan nan nan nan nan nan
nan nan nan nan nan nan nan nan nan nan nan nan nan nan nan nan nan nan nan nan nan nan nan nan nan nan nan nan nan nan nan nan nan nan nan nan nan nan nan nan nan nan nan nan nan nan nan nan nan nan nan nan nan nan nan nan nan nan nan nan nan nan nan nan nan nan nan nan nan nan nan nan nan nan nan nan nan nan nan nan nan nan nan nan nan nan
nan nan nan nan nan nan nan nan nan nan nan nan nan nan nan nan nan nan nan nan nan nan nan nan nan nan nan nan nan nan nan nan nan nan nan nan nan nan nan nan nan nan nan nan nan nan nan nan nan nan nan nan nan nan nan nan nan nan nan nan nan nan nan nan nan nan nan nan nan nan nan nan nan nan nan nan nan nan nan nan nan nan nan nan nan nan
nan nan nan nan nan nan nan nan nan nan nan nan nan nan nan nan nan nan nan nan nan nan nan nan nan nan nan nan nan nan nan nan nan nan nan nan nan nan nan nan nan nan nan nan nan nan nan nan nan nan nan nan nan nan nan nan nan nan nan nan nan nan nan nan nan nan nan nan nan nan nan nan nan nan nan nan nan nan nan nan nan nan nan nan nan nan
nan nan nan nan nan nan nan nan nan nan nan nan nan nan nan nan nan nan nan nan nan nan nan nan nan nan nan nan nan nan nan nan nan nan nan nan nan nan nan nan nan nan nan nan nan nan nan nan nan nan nan nan nan nan nan nan nan nan nan nan nan nan nan nan nan nan nan nan nan nan nan nan nan nan nan nan nan nan nan nan nan nan nan nan nan nan
nan nan nan nan nan nan nan nan nan nan nan nan nan nan nan nan nan nan nan nan nan nan nan nan nan nan nan nan nan nan nan nan nan nan nan nan nan nan nan nan nan nan nan nan nan nan nan nan nan nan nan nan nan nan nan nan nan nan nan nan nan nan nan nan nan nan nan nan nan nan nan nan nan nan nan nan nan nan nan nan nan nan nan nan nan nan
nan nan nan nan nan nan nan nan nan nan nan nan nan nan nan nan nan nan nan nan nan nan nan nan nan nan nan nan nan nan nan nan nan nan nan nan nan nan nan nan nan nan nan nan nan nan nan nan nan nan nan nan nan nan nan nan nan nan nan nan nan nan nan nan nan nan nan nan nan nan nan nan nan nan nan nan nan nan nan nan nan nan nan nan nan nan
nan nan nan nan nan nan nan nan nan nan nan nan nan nan nan nan nan nan nan nan nan nan nan nan nan nan nan nan nan nan nan nan nan nan nan nan nan nan nan nan nan nan nan nan nan nan nan nan nan nan nan nan nan nan nan nan nan nan nan nan nan nan nan nan nan nan nan nan nan nan nan nan nan nan nan nan nan nan nan nan nan nan nan nan nan nan